Content
SEND FEEDBACK

Daily
Averages
Monthly
Summary
United States of America

RED ROCK, TEXAS


Home > North America > United States > Texas
Elevation: 500 feet     Latitude: 29 58N     Longitude: 097 27W

WEATHER
 
SELECT A DAY
Number of Records: 186,905;   Date Range: 7/1/96 - 9/16/14
 
SHARE

PRINT THIS DATA

[ ← Previous Day ]
WEATHER ALMANAC - FEBRUARY 13, 2013
[ Next Day → ]
[ °C ]   °F
Weather ElementAverageHighLow
Temperature49.4 °F63 °F (3:53 pm)37 °F (11:53 pm)
Dewpoint33.3 °F35.1 °F (7:53 pm)28.9 °F (4:53 pm)
Humidity57 %89 % (11:53 pm)29 % (4:53 pm)
Barometer30.10 in30.17 in (9:53 am)30.04 in (3:53 pm)
Wind Speed8.7 mph17.3 mph (1:53 am)
Wind Gust27.6 mph (4:53 am)
Weather ElementAverage
Visibility10 mi
Wind DirectionSSW (189.6 °)

Weather ElementTotal
Precipitation---
Heating Degree Days15 (Base 65)
Averaged from 23 records on February 13, 2013
WEATHER CONDITIONS BREAKOUT
WIND DIRECTION BREAKOUT
WEATHER BY HOUR - FEBRUARY 13, 2013
[ °C ]   °F
Local TimeTemperatureDewpointHumidityBarometerVisibilityWind DirectionWind SpeedGust SpeedPrecipitationEventsConditions
1:53 AM46.0 °F33.1 °F61 %30.10 in10.0 miNNW (330°)17.3 mph23.0 mphMostly Cloudy
2:53 AM45.0 °F33.1 °F63 %30.08 in10.0 miNW (320°)15.0 mph21.9 mphMostly Cloudy
3:53 AM44.1 °F33.1 °F65 %30.07 in10.0 miNNW (330°)17.3 mph26.5 mphScattered Clouds
4:53 AM43.0 °F33.1 °F68 %30.09 in10.0 miNNW (340°)17.3 mph27.6 mphMostly Cloudy
5:53 AM42.8 °F33.8 °F70 %30.11 in10.0 miNNW (340°)9.2 mph19.6 mphScattered Clouds
6:53 AM39.9 °F33.1 °F77 %30.14 in10.0 miNorth (350°)9.2 mphScattered Clouds
7:53 AM41.0 °F34.0 °F76 %30.15 in10.0 miNNW (340°)10.4 mphPartly Cloudy
8:53 AM45.0 °F34.0 °F65 %30.16 in10.0 miNNW (340°)11.5 mphPartly Cloudy
9:53 AM48.9 °F34.0 °F56 %30.17 in10.0 miNorth (350°)13.8 mph18.4 mphPartly Cloudy
10:53 AM53.1 °F34.0 °F48 %30.16 in10.0 miNorth (10°)16.1 mph19.6 mphPartly Cloudy
11:53 AM55.9 °F34.0 °F44 %30.14 in10.0 miNorth (10°)8.1 mphPartly Cloudy
12:53 PM59.0 °F34.0 °F39 %30.12 in10.0 miNorth (360°)8.1 mphPartly Cloudy
1:53 PM60.1 °F33.1 °F36 %30.08 in10.0 miVariable3.5 mphClear
2:53 PM62.1 °F33.1 °F34 %30.06 in10.0 miNorth (360°)5.8 mphClear
3:53 PM63.0 °F32.0 °F31 %30.04 in10.0 miNorth (10°)6.9 mphClear
4:53 PM62.1 °F28.9 °F29 %30.04 in10.0 miENE (60°)5.8 mphClear
5:53 PM59.0 °F30.0 °F33 %30.04 in10.0 miENE (60°)4.6 mphClear
6:53 PM53.1 °F34.0 °F48 %30.06 in10.0 miENE (70°)5.8 mphClear
7:53 PM50.0 °F35.1 °F57 %30.08 in10.0 miENE (70°)4.6 mphClear
8:53 PM48.9 °F35.1 °F59 %30.09 in10.0 miENE (60°)5.8 mphClear
9:53 PM39.0 °F34.0 °F82 %30.10 in10.0 miCalmClear
10:53 PM39.0 °F34.0 °F82 %30.11 in10.0 miCalmClear
11:53 PM37.0 °F34.0 °F89 %30.12 in10.0 miWSW (250°)3.5 mphClear
Hourly data recorded from KAUS, located miles away from Red Rock, Texas







STORIES FROM OUR PARTNERS